[[{"header":{"parameterUnit":"m.s-1","parameterCategory":1,"la1":30.2992,"la2":30.254,"lo1":-89.0895,"lo2":-89.0443,"dy":0.0025,"dx":0.0025,"nx":19,"ny":19,"refTime":"2026-05-16T21:00:00:Z","depth":0,"parameterNumber":2,"parameterNumberName":"U-component_of_WINDS"},"data":[0,0,0,-3.9121,-3.9122,-3.916,-3.916,-3.922,-3.9221,0,0,0,0,0,0,0,0,0,0,0,-3.9117,-3.9117,-3.9121,-3.9122,-3.916,-3.916,-3.922,-3.9221,0,0,0,0,0,0,0,0,0,0,0,-3.9117,-3.9117,-3.9118,-3.9122,-3.916,-3.916,-3.922,-3.9187,0,0,0,0,0,0,0,0,0,0,-3.9148,-3.9151,-3.9117,-3.9118,-3.9123,-3.916,-3.916,-3.9185,-3.9189,-3.9208,0,-3.9226,0,-3.9225,-3.9225,-3.9226,0,0,0,-3.9117,-3.9148,-3.9152,-3.9118,-3.9123,-3.916,-3.9141,-3.9187,-3.9192,-3.9213,-3.9227,-3.9229,-3.9226,-3.9226,-3.9226,-3.9353,-3.9354,0,0,-3.9115,-3.9127,-3.9149,-3.9155,-3.915,-3.914,-3.9143,-3.919,-3.9206,-3.9227,-3.923,-3.9227,-3.9226,-3.9227,-3.9352,-3.9353,0,0,0,-3.9112,-3.9126,-3.9129,-3.9153,-3.9159,-3.9141,-3.9144,-3.9204,-3.9203,-3.9231,-3.9227,-3.9227,-3.9228,-3.9351,-3.9352,-3.9404,0,0,0,-3.9111,-3.9124,-3.9128,-3.9136,-3.9158,-3.9182,-3.9157,-3.92,-3.9205,-3.9227,-3.9227,-3.9228,-3.935,-3.9352,-3.9401,-3.9426,0,0,0,-3.9112,-3.9124,-3.9132,-3.9136,-3.9153,-3.9181,-3.9183,-3.9201,-3.9203,-3.9226,-3.9228,-3.9349,-3.9351,-3.9398,-3.9421,-3.9462,0,0,0,-3.9116,-3.9178,-3.9133,-3.9201,-3.9153,-3.9214,-3.9183,-3.9227,-3.9253,-3.9227,-3.935,-3.9352,-3.9397,-3.9418,-3.9459,-3.9497,-3.9515,0,0,-3.9201,-3.9189,-3.9228,-3.9189,-3.926,-3.9207,-3.9286,-3.9298,-3.9289,-3.9332,-3.9335,-3.9402,-3.9421,-3.9461,-3.9614,-3.9628,0,0,0,-3.9258,-3.9286,-3.9303,-3.9328,-3.9339,-3.9351,-3.9349,-3.9354,-3.939,-3.9314,-3.9429,-3.944,-3.9463,-3.948,-3.9492,-3.9511,-3.9362,-3.9361,-3.9361,-3.9392,-3.9379,-3.9443,-3.9434,-3.946,-3.9459,-3.9478,-3.9484,-3.9462,-3.949,-3.9502,-3.9596,-3.9617,-3.9626,-3.9646,-3.9523,-3.9523,-3.9524,-3.9524,-3.9513,-3.9549,-3.9522,-3.9573,-3.9559,-3.9602,-3.9605,-3.9589,-3.9627,-3.9586,-3.9606,-3.9559,-3.9642,-3.9658,-3.9528,-3.9527,-3.9526,-3.9526,-3.9526,-3.9597,-3.9612,-3.9618,-3.9654,-3.9684,-3.9675,-3.9713,-3.9699,-3.9687,-3.9707,-3.9717,-3.9716,-3.9711,-3.9713,-3.9714,-3.9714,-3.9714,-3.9714,-3.9715,-3.968,-3.9686,-3.9719,-3.9739,-3.9754,-3.9773,-3.9775,-3.979,-3.9802,-3.9789,-3.9789,-3.9764,-3.9654,-3.9625,-3.972,-3.9719,-3.9718,-3.9718,-3.9717,-3.9802,-3.9773,-3.9825,-3.9841,-3.9863,-3.9894,-3.9878,-3.9909,-3.992,-3.9939,-3.9912,-3.9833,-3.9819,-3.9809,-3.9785,-3.9915,-3.9915,-3.9915,-3.9915,-3.9871,-3.9864,-3.9914,-3.994,-3.9965,-3.9956,-4.0016,-4.002,-4.0019,-4.0024,-4.0005,-3.9972,-3.9963,-3.9954,-3.9942,-3.9918,-4.008,-4.008,-4.008,-3.9944,-3.9939,-3.9992,-3.9992,-4.0009,-4.0025,-4.008,-4.0111,-4.0105,-4.0087,-4.0028,-4.0021,-3.9969,-3.9953,-3.993,-3.991,-3.9868,0,0]},{"header":{"parameterUnit":"m.s-1","parameterCategory":1,"la1":30.2992,"la2":30.254,"lo1":-89.0895,"lo2":-89.0443,"dy":0.0025,"dx":0.0025,"nx":19,"ny":19,"refTime":"2026-05-16T21:00:00:Z","depth":0,"parameterNumber":3,"parameterNumberName":"V-component_of_WINDS"},"data":[0,0,0,4.2939,4.294,4.2987,4.2987,4.3041,4.3042,0,0,0,0,0,0,0,0,0,0,0,4.2921,4.2922,4.2939,4.294,4.2987,4.2987,4.3041,4.3042,0,0,0,0,0,0,0,0,0,0,0,4.2921,4.2922,4.2922,4.294,4.2987,4.2987,4.3041,4.3008,0,0,0,0,0,0,0,0,0,0,4.2963,4.2944,4.2922,4.2922,4.294,4.2987,4.2987,4.3006,4.301,4.3018,0,4.3024,0,4.3034,4.3045,4.3045,0,0,0,4.2942,4.294,4.2957,4.2922,4.2941,4.2987,4.2966,4.3008,4.3012,4.3022,4.3025,4.3027,4.3035,4.3046,4.3046,4.3087,4.3087,0,0,4.2939,4.2928,4.2954,4.2959,4.2952,4.2965,4.2968,4.3011,4.3013,4.3025,4.3029,4.3036,4.3046,4.3046,4.3087,4.3087,0,0,0,4.293,4.2926,4.2941,4.2957,4.2966,4.2966,4.297,4.3011,4.3017,4.3029,4.3036,4.3046,4.3047,4.3087,4.3087,4.3082,0,0,0,4.2929,4.2921,4.294,4.2933,4.2965,4.2989,4.2968,4.3014,4.3019,4.3036,4.3046,4.3047,4.3087,4.3087,4.3082,4.3081,0,0,0,4.2919,4.292,4.2926,4.2932,4.2953,4.2989,4.2997,4.3015,4.3023,4.3045,4.3047,4.3087,4.3087,4.3082,4.3081,4.309,0,0,0,4.2906,4.2918,4.2925,4.2943,4.2952,4.2985,4.2997,4.3022,4.304,4.3046,4.3087,4.3087,4.3082,4.3081,4.309,4.3095,4.3096,0,0,4.2915,4.2919,4.2931,4.2938,4.2967,4.2979,4.3008,4.3034,4.3046,4.3073,4.3074,4.3082,4.3081,4.309,4.3107,4.3108,0,0,0,4.293,4.2938,4.2948,4.2966,4.2988,4.3007,4.3031,4.3042,4.3066,4.3058,4.3088,4.3087,4.3093,4.3096,4.3097,4.3103,4.3088,4.3088,4.3088,4.2926,4.2943,4.2963,4.2986,4.3003,4.3029,4.3045,4.3063,4.3072,4.308,4.3087,4.3096,4.3099,4.31,4.3106,4.3092,4.3092,4.3092,4.3092,4.2942,4.2956,4.2972,4.2997,4.3015,4.3035,4.3062,4.3069,4.309,4.3091,4.3097,4.3096,4.3101,4.3107,4.3091,4.3091,4.3091,4.3091,4.3091,4.2941,4.2951,4.2965,4.2995,4.3016,4.3038,4.306,4.3074,4.3088,4.3094,4.3104,4.3104,4.3107,4.3098,4.3098,4.3098,4.3098,4.3098,4.3098,4.2935,4.2951,4.2968,4.2995,4.301,4.3031,4.306,4.3074,4.3094,4.3103,4.3103,4.3113,4.3098,4.3095,4.3099,4.3098,4.3098,4.3098,4.3098,4.2945,4.2946,4.2972,4.2987,4.3021,4.3042,4.3061,4.3091,4.3105,4.3115,4.3124,4.3111,4.3116,4.3115,4.3112,4.312,4.312,4.312,4.312,4.2944,4.2949,4.298,4.3004,4.3029,4.305,4.3079,4.3102,4.3125,4.3136,4.3137,4.3134,4.3133,4.3138,4.3137,4.3134,4.3148,4.3148,4.3148,4.2951,4.296,4.2982,4.3007,4.3035,4.3059,4.3088,4.3114,4.3141,4.315,4.3144,4.3143,4.3139,4.3136,4.3144,4.3142,4.3137,0,0]}]]